Location: Grasslands National Park East Block
(49.0708°N, 106.5295°W)
Time: 04:51:09
(UTC-06:00)

Vanguard 1 Rocket - Pass Details

Date: 29 September 2019
Orbit: 650 x 4226 km, 34.3° (Epoch: 13 October)

Event Time Altitude Azimuth Distance (km) Brightness Sun altitude
Rises 22:16:50 0° 277° (W) 7,780 12.9 -32.5°
Reaches altitude 10° 22:24:07 10° 267° (W) 6,181 12.1 -33.4°
Maximum altitude 22:36:22 24° 224° (SW) 3,864 10.5 -34.9°
Enters shadow 22:39:28 22° 204° (SSW) 3,639 10.2 -35.2°
Drops below altitude 10° 22:44:22 10° 175° (S) 3,879 - -35.8°
Sets 22:47:38 0° 161° (SSE) 4,429 - -36.1°
